DECAYED

STARLINK-1722, 46361 (Decayed)

Orbit data source: Space-Track

STARLINK-1722, 46361 was a payload satellite owned by SpaceX/Seattle (US) in LEO that was launched on Thu, 03 Sep 2020 UTC via an FALCON 9 launch vehicle from the Air Force Eastern Test Range (AFETR). Payload-class satellites include a variety of spacecraft equipped with specific instruments for various scientific and technological missions. These include communications satellites like Starlink; space stations such as the ISS; scientific satellites like the Hubble; Earth observation satellites from companies like Planet Labs, Umbra, and HawkEye 360; GPS; miniature CubeSats for education and research; and military/defense satellites.

Not visible in the next 10 days
Identifier
46361, 2020-062AN
Orbit
Decayed
Last TLE update
5 months ago
Origin
Manufacturer
SpaceX/Seattle
Mission
Decayed Commercial Communications
Bus & Motor
STARLINK, Unknown motor
Mass
260 kg wet, ~248 kg dry
Launch date (UTC)
2020-09-03 (5 years ago)
Launch vehicle
FALCON 9
Launch site
Air Force Eastern Test Range (AFETR)
Object type
Payload
Rocket body
Debris
Shape & HBR
Box + 1 Pan, 8.86 m
Radar Cross Section
13.562 m², Large (>1 m²)

Expand to show TLE details & history

TLE from 5 months ago
0 STARLINK-1722
1 46361U 20062AN  25046.80297388  .18043097  12467-4  61040-3 0  9992
2 46361  53.0236 228.8279 0007237 265.4435 195.0921 16.44122734247247
Epoch: 2025-02-15T19:16Z
TLE epoch observation values (Epoch: 2025-02-15T19:16:16.943Z)
Latitude
51.92198°
Longitude
-99.12053°
Altitude
165.613 km
Speed
7.811 km/s
True Right ascension
22h 23m 58s
True Declination
51° 44' 23"
Sunlit
Object was in daylight at epoch
Visualization orbit readout
Visualization observer readout
Orbital elements
Apogee altitude
159.878 km
Perigee altitude
150.422 km
Semi-major axis
6,533.287 km
Eccentricity
0.00072
Inclination
53.0236°
RAAN
228.8279°
Arg. of periapsis
265.4435°
True anomaly
Unknown
Mean anomaly
195.0921°
Eccentric anomaly
Unknown
Mean motion
4.11004 °/min
Orbital period
87.59 mins
BSTAR
0.0006104
Loading maneuver chart data...
Loading SW <> Apogee altitude chart data...
Loading historical data...
Loading historical data...
Loading historical data...
Loading historical data...
Loading historical data...
Loading historical data...
Loading historical data...

STARLINK-1722 Visibility

Observer location: undefined°, undefined°

This satellite is decayed
Span
Click to sort rows by Start time (UTC) header in descending order
Start Az.
Max El. time (UTC)
Max El. Az.
Max El.
End time (UTC)
End Az.
|